Theta_e
295 295 295 294 294 295 294 294 295 295 295 295 296 296 296 296 296 296 296 296 296 298 299 300 301 303 303 304 304 304 303 303 299 301 303 301 298 297 297 296 296 296 296
292 292 292 292 292 291 291 291 292 292 292 292 292 292 292 293 293 293 292 292 292 292 293 295 296 298 298 299 300 300 300 301 299 296 299 299 297 296 297 295 295 294 294
291 291 290 290 290 290 289 290 290 290 290 290 290 289 289 290 290 289 289 289 290 291 292 292 292 292 291 292 293 293 295 296 297 295 294 297 297 289 290 290 291 292 292
290 289 289 288 289 289 289 288 288 288 288 288 288 287 286 287 287 286 286 287 287 288 289 289 290 289 289 289 289 290 291 291 291 291 291 292 293 288 286 286 289 288 290
289 288 288 288 288 287 287 287 286 286 286 285 285 285 284 285 285 286 285 285 284 284 285 286 287 288 289 289 288 287 287 288 288 288 288 289 289 289 286 288 287 289 290
287 286 286 285 284 284 284 284 284 284 284 284 284 284 283 284 289 290 288 284 283 283 283 283 284 284 288 289 289 290 289 287 286 286 286 286 287 287 288 288 287 286 284
284 284 284 284 284 283 284 284 283 283 283 283 283 283 282 282 288 289 289 284 283 282 282 283 285 285 285 286 287 288 287 288 289 286 284 285 285 286 286 285 285 285 285
283 283 283 283 282 282 282 282 282 282 281 281 281 281 281 282 287 288 288 283 281 281 281 284 284 285 285 285 285 285 285 285 285 285 285 285 286 287 286 286 285 285 285
283 282 282 281 279 280 278 280 281 278 278 277 280 277 275 278 285 287 286 281 282 281 282 282 284 284 286 287 285 284 284 284 287 288 288 289 289 289 288 285 282 281 280
282 282 282 280 276 275 278 277 278 275 279 279 278 276 275 273 283 287 286 281 279 282 283 284 284 284 286 287 284 284 282 282 283 284 284 285 287 285 287 285 283 280 280
280 280 279 278 275 275 275 275 272 271 274 269 273 273 272 274 276 286 286 284 283 282 283 283 283 285 286 287 287 284 283 285 284 283 283 283 282 279 279 283 283 282 280
276 276 272 270 273 274 268 268 267 266 267 269 270 273 275 276 281 285 286 286 286 283 282 283 284 286 286 286 285 285 286 285 283 282 281 277 280 279 281 282 281 278 277
270 267 266 266 268 268 265 266 267 266 267 270 273 274 277 280 280 284 285 286 285 284 284 285 286 285 285 284 285 285 283 281 281 280 279 280 280 281 281 278 274 275 273
266 265 265 265 264 264 268 268 264 264 266 270 271 278 279 280 281 282 281 283 283 284 284 284 284 285 284 284 282 283 282 281 281 280 280 281 281 280 273 275 273 273 271
265 266 265 265 262 265 268 266 268 268 269 266 275 278 279 279 281 283 284 284 284 283 283 283 281 280 280 280 280 280 280 280 279 279 280 279 279 274 275 273 272 269 269
266 265 263 263 263 266 265 265 273 276 278 279 280 280 278 282 283 284 284 286 286 285 282 280 279 276 279 278 278 278 279 278 277 278 278 278 275 271 272 273 272 270 270
262 262 261 263 262 262 262 262 264 268 274 276 277 279 280 281 282 283 284 285 285 285 279 278 278 279 277 276 275 276 276 276 273 273 273 273 272 271 270 270 269 268 269
254 260 257 258 259 259 261 260 259 260 263 264 272 276 278 279 280 281 283 283 279 271 275 277 278 279 277 275 275 274 273 271 271 270 270 269 268 270 269 268 267 266 265
256 256 256 257 257 259 258 257 259 260 261 263 265 270 270 275 278 278 278 273 273 273 271 273 273 273 273 272 273 273 271 270 269 268 265 262 263 265 263 264 264 265 266
253 258 257 256 256 256 256 257 258 257 260 258 260 264 267 269 261 261 260 263 267 268 268 268 267 269 269 269 269 269 269 268 267 266 265 261 261 262 262 262 262 262 262
255 255 258 255 255 254 254 255 257 257 256 256 260 261 273 270 265 265 260 259 259 262 263 264 265 264 265 265 265 266 266 266 265 265 264 263 260 260 260 263 260 260 260
255 254 254 254 254 255 255 255 255 254 257 257 259 257 270 257 257 258 258 258 256 258 261 261 262 261 261 262 262 263 263 263 263 262 262 262 259 259 259 260 260 261 259
254 253 252 252 253 254 253 252 253 253 253 255 257 257 255 256 256 255 257 256 254 256 261 260 260 260 261 262 262 261 261 261 261 260 260 260 260 259 259 258 258 255 257
253 253 253 252 252 252 251 251 251 253 253 253 252 253 256 255 255 256 256 256 254 256 260 261 260 260 261 261 261 261 260 260 260 259 258 259 260 259 258 256 257 257 252
252 252 252 252 250 251 250 250 251 250 251 253 254 252 252 255 256 256 256 256 257 260 261 262 262 261 261 261 261 260 260 262 260 259 258 258 258 257 254 254 254 254 251
254 253 252 253 254 254 255 256 252 252 252 254 254 254 254 256 257 256 256 257 259 261 262 262 262 262 261 261 261 261 262 263 261 260 257 257 256 254 253 253 252 249 249
Wind_Speed
8 8 10 9 9 9 8 7 6 7 7 7 6 6 7 7 7 6 6 6 6 6 5 5 6 7 6 6 5 5 7 7 12 16 10 4 4 7 7 7 7 9 8
7 9 9 8 8 9 8 6 6 7 6 6 6 6 6 6 6 6 6 5 6 5 6 7 8 6 8 8 6 8 8 8 9 19 12 10 7 6 8 8 7 6 8
8 8 8 7 7 7 7 6 6 6 6 7 6 7 6 6 5 5 5 5 5 5 6 8 10 9 9 8 8 8 8 8 9 10 16 9 8 2 4 5 7 8 6
7 8 8 6 6 6 6 6 6 6 6 6 6 6 6 5 5 5 6 5 5 5 5 8 9 8 9 9 9 8 8 8 7 8 11 11 8 2 2 4 7 4 8
9 8 7 6 5 6 6 6 6 6 6 5 6 6 6 5 4 6 5 5 5 6 6 6 6 7 14 13 8 8 8 8 7 8 9 9 8 7 6 5 7 8 10
8 7 6 5 6 6 6 5 5 5 5 5 6 6 7 4 11 10 7 5 6 6 7 7 6 7 11 15 16 18 16 10 9 8 9 10 11 8 7 8 8 8 10
7 6 6 5 6 5 5 5 5 6 5 6 6 6 6 5 10 11 10 4 5 6 6 7 10 6 8 10 13 16 12 14 16 11 11 10 12 9 10 11 10 9 11
7 5 5 5 5 4 5 5 4 3 5 4 4 4 5 5 12 12 12 5 5 5 6 6 10 12 10 11 11 10 7 6 8 7 9 10 10 10 9 9 11 10 11
6 6 5 4 4 4 4 4 3 2 1 2 3 4 3 6 12 12 9 3 5 5 5 6 9 10 13 18 11 10 10 8 8 15 18 21 22 21 17 8 8 9 10
6 5 5 3 3 2 1 3 1 1 3 3 3 3 6 6 11 12 12 3 6 8 9 9 10 10 20 19 10 8 10 10 10 8 8 11 11 11 16 9 6 8 7
5 4 4 3 2 2 1 1 2 3 2 3 4 3 4 3 4 13 14 7 7 7 7 8 6 15 19 18 17 7 9 12 10 7 7 7 6 6 5 5 6 5 6
4 4 3 2 2 2 1 3 2 2 3 4 4 4 3 4 7 11 15 12 12 7 8 7 7 16 17 18 14 15 16 10 5 6 5 4 8 8 8 5 4 4 3
5 4 2 2 2 1 1 3 3 3 2 3 3 4 5 4 5 15 17 17 14 9 7 11 19 15 17 11 13 14 7 2 4 5 5 5 3 5 5 1 3 3 3
5 3 1 3 2 3 2 1 1 2 3 3 4 6 8 8 9 8 6 6 7 8 11 9 10 12 12 10 4 6 5 2 4 5 5 6 3 3 3 2 1 2 3
5 3 3 2 2 1 1 2 1 3 3 2 4 6 8 10 9 16 15 11 6 8 11 9 5 3 4 3 3 3 2 3 4 5 4 5 3 2 2 2 1 2 2
5 3 2 2 1 1 1 2 6 6 8 11 13 11 6 17 21 22 23 23 17 17 8 8 8 4 4 3 4 3 2 1 3 5 4 3 2 2 2 3 2 2 2
5 4 2 2 1 1 2 2 5 4 8 8 10 14 17 18 22 21 23 22 20 14 6 7 9 7 5 3 2 2 2 0 1 3 2 2 2 1 2 2 1 2 2
4 5 3 2 1 1 1 2 2 3 4 3 8 13 15 20 21 23 23 18 8 4 4 7 9 7 4 3 2 2 1 2 1 1 2 2 2 1 1 2 2 1 1
4 3 2 1 1 2 2 2 3 3 4 4 4 7 8 18 18 16 18 8 9 7 4 6 5 4 3 3 3 1 2 2 1 1 1 1 2 1 0 0 0 1 2
3 4 4 3 1 2 2 2 3 3 4 3 3 5 6 8 3 3 2 3 6 6 5 4 3 3 3 3 3 2 1 1 1 0 1 2 1 1 1 0 1 1 0
2 2 3 2 2 2 3 3 3 3 3 3 4 4 18 9 6 7 3 3 3 4 4 4 4 3 2 3 3 2 2 1 1 1 1 2 2 1 1 1 0 1 2
4 3 3 4 3 2 4 3 3 3 3 2 3 4 15 3 4 4 4 4 4 4 3 3 3 2 2 2 2 2 2 2 2 2 2 2 2 1 0 0 0 0 0
3 3 3 2 3 3 2 2 3 2 3 3 4 4 3 4 4 4 4 4 3 3 3 3 3 3 2 1 1 1 3 3 2 2 3 2 2 2 1 2 2 1 2
5 4 4 3 2 2 3 3 3 3 3 3 3 3 4 4 5 5 4 4 3 4 4 4 3 4 3 3 2 2 2 3 2 3 3 3 3 3 2 2 2 3 2
4 4 4 4 3 3 3 3 3 3 3 4 4 3 4 5 5 5 4 4 4 4 5 5 4 5 6 6 5 5 5 7 4 4 3 4 4 4 2 2 2 2 2
5 4 3 3 3 3 3 3 4 4 4 4 4 5 5 5 5 5 4 5 5 6 6 5 6 8 8 6 7 8 9 10 8 9 4 3 3 3 3 3 3 2 2
Wind_Direction
67 68 69 63 66 69 70 59 56 55 46 48 48 50 46 40 26 31 20 7 356 340 337 323 320 317 304 301 289 276 271 266 275 290 286 290 273 258 256 254 253 257 263
75 77 74 72 70 74 70 63 59 62 49 53 52 56 44 38 32 34 16 0 348 343 343 338 322 318 307 306 301 293 287 281 279 287 291 292 264 249 255 259 255 249 252
85 83 73 71 74 75 72 60 56 61 52 45 45 44 35 30 30 28 15 360 347 349 340 326 318 319 311 312 309 302 299 298 294 292 297 298 298 273 276 260 260 266 263
93 89 85 73 72 71 66 59 54 49 51 44 42 41 32 20 24 17 7 348 337 330 325 321 317 314 310 314 308 300 295 289 286 281 286 294 293 305 254 276 278 242 267
96 90 86 81 71 69 65 60 57 49 46 43 36 28 23 16 355 349 338 318 310 305 286 275 271 282 298 297 299 300 296 292 288 286 284 289 292 290 285 284 272 288 276
100 98 98 94 85 73 67 66 65 56 40 35 28 20 7 354 339 334 331 318 311 308 311 308 297 297 315 312 306 298 295 298 294 288 287 284 288 296 299 295 297 300 298
105 107 103 99 88 72 70 60 46 41 23 23 12 356 333 314 325 331 329 309 303 302 303 315 324 317 312 313 309 305 303 295 292 295 295 297 299 300 292 290 287 281 282
118 114 104 98 93 77 70 59 40 44 21 352 319 300 307 313 330 334 334 319 302 291 288 306 318 319 316 313 308 304 295 284 281 284 276 287 285 290 283 282 287 286 285
134 131 130 116 104 81 63 39 14 16 312 271 279 307 306 301 326 336 341 296 307 300 293 306 322 313 311 319 318 309 306 298 278 289 289 293 301 307 307 306 302 300 301
145 137 122 111 118 97 60 5 326 341 285 296 300 258 269 283 328 347 349 318 328 329 329 327 321 318 322 319 311 309 306 312 306 302 299 297 297 286 297 285 295 294 299
126 128 120 95 90 50 28 333 294 305 283 270 259 269 282 257 307 338 342 336 323 313 314 315 314 307 310 313 317 310 297 308 317 305 298 299 314 318 318 314 316 298 307
133 122 95 48 16 34 65 320 317 328 331 334 343 321 302 295 307 321 322 321 313 306 301 296 296 304 316 313 316 309 315 337 314 313 318 325 327 326 327 338 18 15 2
116 98 75 16 353 13 70 327 341 9 13 316 322 325 323 322 317 316 312 307 313 304 293 286 301 312 310 306 305 315 319 297 299 300 304 304 280 298 304 340 337 340 349
124 127 114 94 33 4 347 358 11 337 339 333 330 320 318 315 314 315 300 274 283 297 297 287 270 289 296 299 296 315 317 298 309 306 306 305 292 340 330 311 52 322 20
122 133 111 128 123 16 253 220 227 261 204 235 283 296 304 307 302 306 305 300 285 288 302 298 272 245 269 277 286 293 292 343 334 315 305 311 303 348 319 337 344 357 58
135 147 166 142 45 35 25 344 336 317 318 311 308 304 295 295 309 313 308 307 291 300 287 292 288 246 257 260 278 283 261 345 319 312 315 320 332 331 326 344 30 61 79
151 161 152 123 107 48 23 12 330 318 323 316 315 313 313 311 318 318 312 308 308 300 279 293 285 268 245 229 232 255 270 280 347 314 313 330 311 344 16 7 36 59 36
159 164 157 153 106 28 320 282 264 287 312 304 315 321 326 331 327 321 321 321 321 324 282 290 297 284 256 241 238 238 276 326 291 299 326 325 333 12 16 4 5 66 61
168 166 141 137 146 237 268 273 263 282 277 286 299 321 318 323 321 335 342 338 315 315 312 307 310 318 317 316 308 280 261 255 265 277 320 345 333 80 54 219 131 45 145
176 192 174 178 194 258 277 273 285 283 280 287 308 305 315 309 1 307 333 320 317 311 314 317 314 318 322 329 325 319 290 286 276 294 318 316 335 43 115 295 308 141 296
160 172 179 155 193 203 227 241 255 253 265 262 264 279 317 324 331 321 316 312 293 298 306 309 315 319 334 337 342 334 326 314 318 322 301 304 314 358 343 16 70 58 124
164 180 177 187 194 209 239 234 245 256 259 273 290 294 317 319 299 299 302 293 280 276 281 295 302 309 324 337 343 333 329 323 327 326 302 296 293 299 296 113 357 174 142
168 177 189 194 196 212 240 239 262 265 276 275 282 285 293 293 291 283 286 282 280 287 289 285 289 293 290 301 309 314 310 309 295 293 290 296 293 281 263 220 182 186 202
164 172 185 202 193 199 216 249 259 259 264 270 275 278 285 278 280 279 277 277 268 268 265 264 258 263 266 259 249 240 251 261 256 257 254 265 267 259 241 221 208 216 194
163 174 184 188 194 218 250 261 260 260 263 268 277 269 273 276 280 278 280 278 270 270 270 265 254 251 258 258 253 249 245 270 257 242 239 247 252 242 233 227 203 209 185
173 177 180 184 214 227 239 252 253 252 258 260 253 258 263 268 270 269 273 271 271 271 268 260 252 253 254 252 248 249 251 257 245 236 214 221 223 227 218 233 210 201 187